SL-8 DEB, 21254

Orbit data source: Space-Track

SL-8 DEB, 21254 is space debris in LEO originally from a launch on Tue, 12 Feb 1991 UTC launched from the Plesetsk Missile And Space Complex (PKMTR). Debris objects in space refer to the collection of defunct objects orbiting the Earth. Examples of debris include non-operational satellites, rocket bodies, and fragments generated from explosions, collisions, or faulty payload assembly.

Loading next visibility...
Identifier
21254, 1991-009BM
Orbit
LEO
Country
Flag of CISCIS
Related business
Manufacturer
Unknown
Mission
Spacecraft
Bus & Motor
Unknown
Mass
Unknown
Launch date (UTC)
1991-02-12 (35 years ago)
Launch vehicle
Unknown
Launch site
Plesetsk Missile And Space Complex (PKMTR)
Object type
Payload
Rocket body
Debris
Shape & HBR
Unknown shape, 0.2 m
Radar Cross Section
Medium (>0.1 m² and <1 m²)

Expand to show TLE details & history
Last TLE update: 2 days ago

TLE from 2 days ago
0 SL-8 DEB
1 21254U 91009BM  26171.41448225  .00000009  00000-0  17159-3 0  9995
2 21254  73.8878 141.1558 0188317 123.5974 357.8910 12.39409041596636
Epoch: 2026-06-20T09:56Z
TLE epoch observation values (Epoch: 2026-06-20T09:56:51.266Z)
Latitude
55.18189°
Longitude
-121.09785°
Altitude
1,369.398 km
Speed
7.247 km/s
True Right ascension
19h 46m 58s
True Declination
55° 01' 60"
Sunlit
Object was in daylight at epoch
Visualization orbit readout
Latitude
Unknown
Longitude
Unknown
Altitude
Unknown
Speed
Unknown
Apparent Right ascension
Unknown
Apparent Declination
Unknown
Sunlit
N/A
Visualization observer readout
Local Sidereal Time
05:18:42
Azimuth
Unknown
Elevation
Unknown
Doppler factor
Unknown
Orbital elements
Apogee altitude
1,655.456 km
Perigee altitude
1,358.477 km
Semi-major axis
7,885.104 km
Eccentricity
0.01883
Inclination
73.8878°
RAAN
141.1558°
Arg. of periapsis
123.5974°
True anomaly
357.80967°
Mean anomaly
357.891°
Eccentric anomaly
357.85053°
Mean motion
3.09979 °/min
Orbital period
116.14 mins
BSTAR
0.00017159
Loading maneuver chart data...
Computing Atmospheric mass density...
Loading historical data...
Loading historical data...
Loading historical data...
Loading historical data...
Loading historical data...
Loading historical data...
Loading historical data...

Documentation

Showing up to 5 results
|